Durant, OK

7:22 AM CST on December 10, 2019 (GMT -0600)
Eaker

Weather History for KDUA - October, 2019

Change the Weather History Date:

Thursday, October 3, 2019

  Actual Average (WUND) Record (WUND)
Temperature  
Mean Temperature 82 °F -  
Max Temperature 93 °F - - (-1)
Min Temperature 71 °F - - (-1)
Cooling Degree Days 17    
Growing Degree Days 32 (Base 50)    
Moisture  
Dew Point 67 °F    
Average Humidity 65    
Maximum Humidity 88    
Minimum Humidity 38    
Precipitation  
Precipitation 0.00 in - - ()
Sea Level Pressure  
Sea Level Pressure 30.08 in    
Wind  
Wind Speed 5 mph (North)    
Max Wind Speed 10 mph    
Max Gust Speed -    
Visibility 6 miles    
Events Rain    
Averages and records for this station are not official NWS values.
T = Trace of Precipitation, MM = Missing Value Source: NWS Daily Summary

Daily Weather History Graph

Daily Weather History Graph

Search for Another Location

Airport or City:

Astronomy

Oct. 03, 2019 Rise Set
Actual Time 7:21 AM CDT 7:07 PM CDT
Civil Twilight 6:56 AM CDT 7:32 PM CDT
Nautical Twilight 6:27 AM CDT 8:01 PM CDT
Astronomical Twilight 5:58 AM CDT 8:30 PM CDT
Moon 12:40 PM CDT (10/3) 11:01 PM CDT (10/3)
Length of Visible Light 12h 35m
Length of Day
11h 46m
Waxing Crescent, 30% of the Moon is Illuminated
Oct 3
Waxing Crescent
Oct 5
First Quarter
Oct 13
Full
Oct 21
Last Quarter
Oct 27
New

Hourly Weather History & Observations

Time (CDT) Temp. Heat Index Dew Point Humidity Pressure Visibility Wind Dir Wind Speed Gust Speed Precip Events Conditions
12:14 AM 75.2 °F - 66.2 °F 73% 30.00 in 10.0 mi SSE 4.6 mph - N/A   Clear
12:36 AM 75.2 °F - 66.2 °F 73% 30.00 in 10.0 mi South 5.8 mph - N/A   Clear
1:16 AM 75.2 °F - 66.2 °F 73% 30.00 in 10.0 mi South 6.9 mph - N/A   Clear
1:34 AM 75.2 °F - 66.2 °F 73% 29.99 in 10.0 mi South 8.1 mph - N/A   Clear
2:35 AM 75.2 °F - 68.0 °F 78% 30.00 in 10.0 mi South 5.8 mph - N/A   Clear
2:55 AM 75.2 °F - 68.0 °F 78% 30.00 in 10.0 mi South 5.8 mph - N/A   Clear
3:14 AM 75.2 °F - 68.0 °F 78% 30.00 in 10.0 mi South 4.6 mph - N/A   Clear
3:34 AM 75.2 °F - 68.0 °F 78% 30.01 in 10.0 mi SSW 4.6 mph - N/A   Clear
4:34 AM 75.2 °F - 68.0 °F 78% 30.03 in 10.0 mi South 5.8 mph - N/A   Clear
4:54 AM 75.2 °F - 69.8 °F 83% 30.03 in 10.0 mi SSW 4.6 mph - N/A   Clear
5:35 AM 75.2 °F - 68.0 °F 78% 30.05 in 10.0 mi SSW 4.6 mph - N/A   Clear
6:35 AM 73.4 °F - 68.0 °F 83% 30.06 in 10.0 mi SSW 3.5 mph - N/A   Clear
6:55 AM 73.4 °F - 68.0 °F 83% 30.07 in 10.0 mi Calm Calm - N/A   Clear
7:14 AM 73.4 °F - 66.2 °F 78% 30.08 in 10.0 mi Calm Calm - N/A   Clear
7:34 AM 71.6 °F - 66.2 °F 83% 30.08 in 10.0 mi Calm Calm - N/A   Clear
7:55 AM 71.6 °F - 68.0 °F 88% 30.08 in 10.0 mi Calm Calm - N/A   Clear
8:15 AM 73.4 °F - 69.8 °F 88% 30.08 in 10.0 mi Calm Calm - N/A   Clear
8:55 AM 78.8 °F - 69.8 °F 74% 30.10 in 10.0 mi Calm Calm - N/A   Clear
9:17 AM 82.4 °F 86.3 °F 69.8 °F 66% 30.11 in 10.0 mi WSW 3.5 mph - N/A   Clear
9:34 AM 82.4 °F 86.3 °F 69.8 °F 66% 30.11 in 10.0 mi WSW 5.8 mph - N/A   Clear
9:56 AM 84.2 °F 87.3 °F 68.0 °F 58% 30.11 in 10.0 mi WSW 5.8 mph - N/A   Clear
10:14 AM 84.2 °F 86.6 °F 66.2 °F 55% 30.12 in 10.0 mi West 5.8 mph - N/A   Clear
10:34 AM 86.0 °F 89.4 °F 68.0 °F 55% 30.12 in 10.0 mi West 4.6 mph - N/A   Clear
10:54 AM 87.8 °F 90.4 °F 66.2 °F 49% 30.13 in 10.0 mi WNW 5.8 mph - N/A   Clear
11:15 AM 87.8 °F 90.4 °F 66.2 °F 49% 30.13 in 10.0 mi NW 6.9 mph - N/A   Clear
11:34 AM 87.8 °F 90.4 °F 66.2 °F 49% 30.13 in 10.0 mi West 4.6 mph - N/A   Clear
11:56 AM 89.6 °F 91.1 °F 64.4 °F 43% 30.13 in 10.0 mi WNW 6.9 mph - N/A   Clear
12:54 PM 91.4 °F 93.2 °F 64.4 °F 41% 30.12 in 10.0 mi Calm Calm - N/A   Clear
1:34 PM 93.2 °F 96.2 °F 66.2 °F 41% 30.10 in 10.0 mi Calm Calm - N/A   Clear
2:56 PM 91.4 °F 94.0 °F 66.2 °F 43% 30.07 in 7.0 mi NNW 4.6 mph - N/A   Scattered Clouds
3:55 PM 91.4 °F 94.0 °F 66.2 °F 43% 30.06 in 2.0 mi Calm Calm - N/A   Haze
4:14 PM 93.2 °F 94.9 °F 64.4 °F 38% 30.05 in 7.0 mi NNE 5.8 mph - N/A   Haze
4:35 PM 93.2 °F 94.9 °F 64.4 °F 38% 30.05 in 1.2 mi NNE 6.9 mph - N/A   Haze
4:57 PM 91.4 °F 93.2 °F 64.4 °F 41% 30.05 in 1.0 mi NNW 4.6 mph - N/A   Haze
5:36 PM 91.4 °F 93.2 °F 64.4 °F 41% 30.05 in 0.5 mi NNE 6.9 mph - N/A   Haze
5:55 PM 89.6 °F 92.2 °F 66.2 °F 46% 30.05 in 0.5 mi NNE 6.9 mph - N/A   Haze
6:16 PM 89.6 °F 92.2 °F 66.2 °F 46% 30.05 in 0.5 mi NNE 6.9 mph - N/A Rain Light Rain
6:35 PM 87.8 °F 91.4 °F 68.0 °F 52% 30.06 in 0.5 mi NE 10.4 mph - N/A   Drizzle
7:56 PM 82.4 °F 86.3 °F 69.8 °F 66% 30.09 in 0.5 mi NE 9.2 mph - N/A   Light Drizzle
8:37 PM 80.6 °F 83.9 °F 69.8 °F 70% 30.10 in 0.5 mi NE 8.1 mph - N/A   Haze
8:54 PM 80.6 °F 83.2 °F 68.0 °F 65% 30.12 in 0.5 mi ENE 4.6 mph - N/A   Haze
9:34 PM 78.8 °F - 69.8 °F 74% 30.14 in 1.0 mi NE 6.9 mph - N/A   Haze
9:54 PM 78.8 °F - 69.8 °F 74% 30.15 in 1.0 mi ENE 8.1 mph - N/A   Haze
10:14 PM 78.8 °F - 69.8 °F 74% 30.14 in 0.8 mi NNE 9.2 mph - N/A   Haze
10:36 PM 78.8 °F - 69.8 °F 74% 30.14 in 0.8 mi NNE 8.1 mph - N/A   Haze
10:55 PM 77.0 °F - 69.8 °F 78% 30.14 in 0.8 mi NNE 6.9 mph - N/A   Haze
11:17 PM 75.2 °F - 69.8 °F 83% 30.15 in 0.8 mi NNE 8.1 mph - N/A   Haze
11:34 PM 75.2 °F - 68.0 °F 78% 30.14 in 0.8 mi NNE 6.9 mph - N/A   Haze
11:55 PM 75.2 °F - 66.2 °F 73% 30.14 in 0.8 mi NNE 10.4 mph - N/A   Haze